Regional Weather Roundup
Issued by NWS Grand Forks, ND

Home | Current Version | Previous Version | Graphics & Text | Print | Product List | Glossary On
Versions: 1 2 3 4 5 6 7 8 9 10 11 12 13 14 15 16 17 18 19 20 21 22 23 24 25 26 27 28 29 30 31 32 33 34 35 36 37 38 39 40 41 42 43 44 45 46 47 48 49 50
390
ASUS43 KFGF 231931
RWRFGF
PRAIRIE TO PINES  WEATHER ROUNDUP
NATIONAL WEATHER SERVICE EASTERN NORTH DAKOTA/GRAND FORKS ND
100 PM CST MON JAN 23 2017

 **SATELLITE DATA USED TO AUGMENT SKY COVER AT AUTOMATED STATIONS**
 *****  WEATHER ACROSS EASTERN NORTH DAKOTA  *****

CITY           SKY/WX    TMP DP  RH WIND       PRES   REMARKS
GRAND FORKS    CLOUDY    32  23  69 W14       29.78F WCI  22
GRAND FRKS AFB CLOUDY    31  23  70 NW12      29.78S WCI  22
DEVILS LAKE    CLOUDY    26  22  84 W15       29.75F WCI  14
FARGO          CLOUDY    35  28  75 W8        29.80F
WAHPETON ARPT  CLOUDY    32  25  74 W5        29.81S
$$

 ***** WEATHER ACROSS CENTRAL AND WESTERN NORTH DAKOTA  *****

CITY           SKY/WX    TMP DP  RH WIND       PRES   REMARKS
BISMARCK       CLOUDY    31  23  72 CALM      29.78F
MINOT          CLOUDY    25  19  78 W16       29.77R WCI  12
JAMESTOWN      CLOUDY    28  23  81 W8        29.77F WCI  20
MINOT AFB      CLOUDY    22  18  84 W16       29.76R WCI   9
GARRISON         N/A     28  23  81 N7        29.76S WCI  21
WILLISTON      CLOUDY    25  20  81 N8        29.78F WCI  16
DICKINSON      CLOUDY    23  20  88 CALM      29.72F
HETTINGER      FOG       23  21  92 SE6       29.72F VSB 1/2 WCI  16
$$

 *****  OTHER AIRPORT OBSERVATIONS IN OUR AREA  *****

CITY           SKY/WX    TMP DP  RH WIND       PRES   REMARKS
WALHALLA       NOT AVBL
GRAFTON AIRPOR CLOUDY    30  25  80 W10       29.78F WCI  21
VALLEY CITY AR CLOUDY    30  27  86 W10       29.79F WCI  21
CANDO          NOT AVBL
CAVALIER APRT  CLOUDY    28  23  80 W15G23    29.75F WCI  17
GWINNER        CLOUDY    32  28  86 W7        29.80F
SHEYENNE NWR     N/A     34  24  66 W7        29.95S
ROLLA            N/A    N/A N/A N/A MISG        N/A
 ***** THE ABOVE OBSERVATIONS ARE NON NWS ARE NOT QUALITY
       CONTROLLED AND MAY MIS-REPORT RAIN FOR SNOW...
$$

  *****  WEATHER ACROSS NORTHERN MINNESOTA  *****

CITY           SKY/WX    TMP DP  RH WIND       PRES   REMARKS
FLAG ISLAND    CLOUDY    30  30 100 S5        29.72F
WARROAD        CLOUDY    32  28  86 SW8       29.74F WCI  25
ROSEAU         FAIR      32  27  80 SW8       29.74F WCI  25
HALLOCK        CLOUDY    30  27  86 W15       29.75F WCI  19
THF RVR FALLS  CLOUDY    29  24  82 W15       29.78S WCI  18
BAUDETTE       CLOUDY    33  28  81 SW9       29.74F
WASKISH        CLOUDY    32  30  93 SW6       29.75F
CROOKSTON      CLOUDY    32  25  74 W14       29.79F WCI  22
STEPHEN NDAWN    N/A     28  25  86 W10         N/A  WCI  19
GREENBUSH NDAW   N/A     28  27  93 SW12        N/A  WCI  18
$$
  *****  WEATHER ACROSS CENTRAL AND WEST MINNESOTA  *****

CITY           SKY/WX    TMP DP  RH WIND       PRES   REMARKS
FOSSTON        CLOUDY    30  27  86 W6        29.78S WCI  24
BEMIDJI        CLOUDY    32  26  78 W7        29.76F
PARK RAPIDS    CLOUDY    32  23  69 W9        29.77F WCI  24
ELBOW LAKE     CLOUDY    31  26  79 SW6       29.81F HAZE
WADENA         CLOUDY    30  25  80 NW3       29.78F
DETROIT LAKES  CLOUDY    32  28  86 NW8       29.79S WCI  25
MOORHEAD       CLOUDY    34  28  80 NW6       29.81S
FERGUS FALLS   CLOUDY    32  27  80 CALM      29.84F
MORRIS MN      CLOUDY    32  28  86 NW6       29.80F
STAPLES        CLOUDY    30  25  80 W8        29.79F WCI  23
$$
  *****  WEATHER ELSEWHERE ACROSS MINNESOTA  *****

CITY           SKY/WX    TMP DP  RH WIND       PRES   REMARKS
DULUTH         CLOUDY    37  31  78 NW3       29.74F
INTRNTL FALLS  CLOUDY    33  30  88 W8        29.75S
ELY            CLOUDY    34  34 100 CALM      29.73F
CLOQUET        CLOUDY    36  34  93 SW6       29.76S
WHEATON        CLOUDY    32  27  80 SW5       29.84S
BRAINERD       CLOUDY    31  29  92 W5        29.80S
HIBBING        CLOUDY    33  33 100 W6        29.75S
ALEXANDRIA     CLOUDY    31  27  85 W6        29.81F
SAINT CLOUD    CLOUDY    32  29  88 NW10      29.81F WCI  24
MINNEAPOLIS    CLOUDY    34  28  79 W8        29.83S
$$

  *****  WEATHER ACROSS SOUTH DAKOTA  *****

CITY           SKY/WX    TMP DP  RH WIND       PRES   REMARKS
SIOUX FALLS    CLOUDY    31  27  85 CALM      29.81F
BROOKINGS      CLOUDY    29  26  89 CALM      29.80
WATERTOWN      CLOUDY    28  26  92 SW5       29.79F WCI  23
HURON          CLOUDY    31  26  82 VRB3      29.79F
SISSETON         N/A     32  27  81 NW6       29.80F
ABERDEEN       CLOUDY    30  23  75 S6        29.81S WCI  24
MITCHELL       PTSUNNY   33  27  78 SE3       29.80F
PIERRE         CLOUDY    29  25  85 SE12      29.73F WCI  19
MOBRIDGE       CLOUDY    29  24  82 SE7       29.74S WCI  22
RAPID CITY     CLOUDY    26  22  84 N13       29.62F WCI  15
$$

  *****  SOME WEATHER IN NEARBY STATES *****

CITY           SKY/WX    TMP DP  RH WIND       PRES   REMARKS
GLASGOW MT     LGT SNOW  27  23  85 N6        29.76S FOG     WCI  20
GREAT FALLS MT FLURRIES  22  19  89 N8        29.76F WCI  12
CHEYENNE WY    FAIR      46  22  38 W17G26    29.55F
SCOTTSBLUFF NE PTSUNNY   43  25  49 E3        29.58F
OMAHA NE       CLOUDY    36  28  73 NE5       29.86F
DES MOINES IA  CLOUDY    34  29  82 N6        29.88S
DAVENPORT IA   CLOUDY    39  35  86 W14       29.81F
CHICAGO IL     CLOUDY    41  36  82 N9        29.74F
EAU CLAIRE WI  CLOUDY    34  33  96 W7        29.78F FOG
LA CROSSE WI   CLOUDY    39  34  82 CALM      29.81F
$$

  *****  SOME NATIONAL WEATHER *****

CITY           SKY/WX    TMP DP  RH WIND       PRES   REMARKS
LA GUARDIA NY  CLOUDY    42  31  64 NE32G43   29.71F
RALEIGH NC     PTSUNNY   59  46  62 NW5       29.24F
ATLANTA GA     CLOUDY    54  47  77 NW22G35   29.45R
NEW ORLEANS LA FAIR      63  45  51 W13       29.84F
OKLAHOMA CITY  FAIR      56  28  34 S15       29.86F
ALBUQUERQUE NM FAIR      50  28  42 S18       29.87F
SALT LAKE CITY PTSUNNY   39  28  64 S24G35    29.45F
LOS ANGELES CA PTSUNNY   55  48  77 W20       29.90F
BOISE ID       LGT SNOW  30  27  88 NW10      29.63S FOG     WCI  21
SEATTLE WA     FAIR      41  34  76 N8        29.82R
$$

*** WEATHER ACROSS MANITOBA...SASKATCHEWAN AND ONTARIO ***
                ***ONTARIO***

CITY           SKY/WX    TMP DP  RH WIND       PRES   REMARKS
GERALDTON      FOG       34  34 100 E2        29.73F VSB 1/8
THUNDER BAY    CLOUDY    36  34  93 SW6       29.76S
SIOUX LOOKOUT  FLURRIES  34  32  93 VRB2      29.71F
TORONTO        CLOUDY    37  34  87 E10G22    29.75F
BIG TROUT LK   LGT SNOW  25  23  93 E6        29.77F WCI  18
PICKLE LAKE    LGT SNOW  28  27  93 CALM      29.73S
DRYDEN         FOG       34  34 100 S5        29.70S VSB 3/4
KENORA         FRZ DRZL  32  32 100 SW9       29.71S FOG     WCI  24
$$
                *** MANITOBA***

CITY           SKY/WX    TMP DP  RH WIND       PRES   REMARKS
BRANDON        LGT SNOW  23  21  93 W16       29.70F WCI  10
DAUPHIN        FLURRIES  28  23  80 W15G21    29.67F WCI  17
ISLAND LAKE    FLURRIES  32  30  93 CALM      29.72F
PILOT MOUND      N/A     25  21  86 W9          N/A  WCI  15
THE PAS        LGT SNOW  23  18  80 N9        29.78F WCI  13
THOMPSON       LGT SNOW  16  12  86 N8        29.85F DRFTSNOWWCI   5
WINNIPEG       CLOUDY    30  25  80 SW12      29.72F WCI  21
LYNN LAKE      FLURRIES   7   3  85 NE8       29.90F WCI  -6
CHURCHILL      FLURRIES  19  18  93 E17       30.03F WCI   4
GILLAM         LGT SNOW  27  25  93 NE8       29.84F WCI  18
$$
                ***SASKATCHEWAN***

CITY           SKY/WX    TMP DP  RH WIND       PRES   REMARKS
ESTEVAN        CLOUDY    21  18  86 W15       29.75F WCI   8
KINDERSLEY     CRYSTALS  14   9  79 NW12      29.80F WCI   0
LLOYDMINSTER   LGT SNOW  10   9  92 NW8       29.85F WCI  -1
PRINCE ALBERT  LGT SNOW  16  10  79 N8        29.81F WCI   5
REGINA         CLOUDY    19  16  86 W15       29.75F WCI   5
YORKTON        CLOUDY    25  21  86 W13       29.68F WCI  13
N. BATTLEFORD  FLURRIES  10   7  85 NW12      29.86F WCI  -4
LA RONGE       FLURRIES  12   5  73 N6        29.89F WCI   3
SASKATOON      LGT SNOW  14   9  79 N12       29.83F DRFTSNOWWCI   0
SWIFT CURRENT  FLURRIES  14  14 100 NW15      29.74F WCI  -1
$$
NOTE: THESE ARE AUTOMATED STATIONS WITH LIMITED QUALITY CONTROL
      "FAIR" INDICATES FEW OR NO CLOUDS BELOW 12,000 FEET WITH NO
      SIGNIFICANT WEATHER AND/OR OBSTRUCTIONS TO VISIBILITY.
      SKY/WX - SKY CONDITION AND SIGNIFICANT WEATHER.
      TMP - AIR TEMPERATURE.    DP   - DEWPOINT TEMPERATURE.
      RH  - RELATIVE HUMIDITY.  PRES - PRESSURE.
      HX  - HEAT INDEX.         WCI  - WIND CHILL INDEX.
$




USA.gov is the U.S. government's official web portal to all federal, state and local government web resources and services.